Location: Devore Heights
(34.2372°N, 117.4156°W)
Time: 02:05:59
(UTC+00:00)

SR - Pass Details

Date: 22 September 2024
Orbit: 578 x 855 km, 66.7° (Epoch: 02 October)

Event Time Altitude Azimuth Distance (km) Brightness Sun altitude
Rises 18:48:49 0° 209° (SSW) 2,828 ? 53.5°
Reaches altitude 10° 18:51:04 10° 210° (SSW) 1,908 ? 53.6°
Maximum altitude 18:55:19 76° 296° (WNW) 599 ? 54.0°
Drops below altitude 10° 18:59:32 10° 23° (NNE) 1,896 ? 54.2°
Sets 19:01:47 0° 25° (NNE) 2,808 ? 54.4°
